MM3NTX-13 Weather Reports


time (UTC)temp
C
wind
direction
speed
KPH
gust
KPH
rain 1hr
cm
rain 24hr
cm
rain mn
cm
humidity
%
barometer
mb
20260506073020 6 68 1.6 3.2 0.00 0.00 0.00 73 1016.4
20260506072119 6 68 1.6 3.2 0.00 0.00 0.00 75 1016.4
20260506071219 5 68 1.6 3.2 0.00 0.00 0.00 77 1016.1
20260506061819 4 68 0.0 3.2 0.00 0.00 0.00 84 1016.0
20260506044823 2 68 1.6 3.2 0.00 0.00 0.00 90 1016.0
20260506043023 2 68 0.0 3.2 0.00 0.00 0.00 90 1016.1
20260506041219 2 0 0.0 0.0 0.00 0.00 0.00 90 1016.2
20260506040320 2 0 0.0 0.0 0.00 0.00 0.00 90 1015.9
20260506035420 2 0 0.0 0.0 0.00 0.00 0.00 90 1016.0
20260506033620 2 0 0.0 0.0 0.00 0.00 0.00 90 1016.0
20260506031820 2 0 0.0 0.0 0.00 0.00 0.00 89 1016.2
20260506030920 3 0 0.0 0.0 0.00 0.00 0.00 88 1016.3
20260506030020 3 0 0.0 0.0 0.00 0.00 0.00 88 1016.2
20260506025120 3 0 0.0 0.0 0.00 0.00 0.00 87 1016.3
20260506024220 3 0 0.0 0.0 0.00 0.00 0.00 86 1016.4
20260506023320 3 0 0.0 0.0 0.00 0.00 0.00 86 1016.4
20260506022420 3 68 0.0 3.2 0.00 0.00 0.00 84 1016.4
20260506021520 3 68 0.0 3.2 0.00 0.00 0.00 83 1016.3
20260506015720 3 0 0.0 0.0 0.00 0.00 0.00 84 1016.3
20260506014820 3 0 0.0 0.0 0.00 0.00 0.00 83 1016.4
20260506013920 3 68 1.6 3.2 0.00 0.00 0.00 83 1016.5
20260506013020 3 68 0.0 3.2 0.00 0.00 0.00 84 1016.4
20260506012120 3 0 0.0 0.0 0.00 0.00 0.00 84 1016.4
20260506011220 3 0 0.0 0.0 0.00 0.00 0.00 84 1016.5
20260506010320 3 0 0.0 0.0 0.00 0.00 0.00 84 1016.5
20260506005420 3 0 0.0 0.0 0.00 0.00 0.00 85 1016.5
20260506003620 3 0 0.0 0.0 0.00 0.00 0.00 86 1016.7
20260506002720 3 0 0.0 0.0 0.00 0.00 0.00 86 1016.8
20260506001820 3 0 0.0 0.0 0.00 0.00 0.00 86 1016.6
20260506000920 3 0 0.0 0.0 0.00 0.00 0.00 85 1016.4
20260506000020 3 0 0.0 0.0 0.00 0.00 0.00 82 1016.6
20260505235120 4 0 0.0 0.0 0.00 0.00 0.00 80 1016.7
20260505234222 4 68 0.0 3.2 0.00 0.00 0.00 80 1016.4
20260505232420 4 68 0.0 3.2 0.00 0.00 0.00 80 1016.7
20260505231520 4 68 1.6 3.2 0.00 0.00 0.00 81 1016.7
20260505230621 4 68 0.0 3.2 0.00 0.00 0.00 81 1016.8
20260505225720 4 0 0.0 0.0 0.00 0.00 0.00 80 1017.1
20260505224820 5 0 0.0 0.0 0.00 0.00 0.00 78 1016.8
20260505223920 5 0 0.0 0.0 0.00 0.00 0.00 78 1016.9
20260505223020 5 68 0.0 3.2 0.00 0.00 0.00 78 1017.1
20260505222120 5 68 1.6 3.2 0.00 0.00 0.00 77 1016.8
20260505221220 5 68 0.0 3.2 0.00 0.00 0.00 77 1016.9
20260505220320 5 68 0.0 3.2 0.00 0.00 0.00 77 1017.0
20260505215420 5 68 0.0 3.2 0.00 0.00 0.00 76 1017.0
20260505213620 5 68 0.0 3.2 0.00 0.00 0.00 76 1016.9
20260505212720 5 68 0.0 3.2 0.00 0.00 0.00 75 1016.9
20260505210920 5 68 1.6 3.2 0.00 0.00 0.00 75 1016.8
20260505210020 5 68 3.2 3.2 0.00 0.00 0.00 74 1016.9
20260505205120 5 60 3.2 6.4 0.00 0.00 0.00 74 1016.8
20260505204220 5 169 3.2 6.4 0.00 0.00 0.00 73 1016.9
20260505203320 5 196 3.2 6.4 0.00 0.00 0.00 72 1016.8
20260505201520 6 168 3.2 6.4 0.00 0.00 0.00 72 1016.8
20260505195720 6 188 4.8 6.4 0.00 0.00 0.00 71 1016.6
20260505194819 6 170 4.8 6.4 0.00 0.00 0.00 72 1016.6
20260505193919 6 187 3.2 6.4 0.00 0.00 0.00 71 1016.6
20260505193020 6 148 4.8 6.4 0.00 0.00 0.00 71 1016.4
20260505192120 6 172 4.8 9.7 0.00 0.00 0.00 70 1016.4
20260505191220 6 155 6.4 11.3 0.00 0.00 0.00 72 1016.4
20260505190320 6 171 6.4 11.3 0.00 0.00 0.00 71 1016.2
20260505185421 6 250 4.8 6.4 0.00 0.00 0.00 72 1016.1
20260505184520 6 218 6.4 11.3 0.00 0.00 0.00 74 1016.3
20260505183619 7 154 4.8 9.7 0.00 0.00 0.00 73 1016.3
20260505182720 7 185 4.8 9.7 0.00 0.00 0.00 73 1016.3
20260505181820 7 161 4.8 9.7 0.00 0.00 0.00 72 1016.2
20260505180920 7 321 6.4 11.3 0.00 0.00 0.00 72 1016.2
20260505180020 7 34 6.4 11.3 0.00 0.00 0.00 71 1016.2
20260505175120 7 145 6.4 11.3 0.00 0.00 0.00 71 1016.1
20260505174220 7 146 6.4 9.7 0.00 0.00 0.00 69 1016.0
20260505172419 7 16 6.4 9.7 0.00 0.00 0.00 70 1016.2
20260505171520 7 186 6.4 6.4 0.00 0.00 0.00 70 1016.3
20260505165720 8 159 4.8 6.4 0.00 0.00 0.00 72 1015.8
20260505164820 8 94 4.8 9.7 0.00 0.00 0.00 71 1016.2
20260505163920 8 160 6.4 12.9 0.00 0.00 0.00 70 1016.0
20260505163020 8 8 6.4 9.7 0.00 0.00 0.00 71 1016.1
20260505161220 8 16 8.0 11.3 0.00 0.00 0.00 71 1015.8
20260505152720 8 346 6.4 6.4 0.00 0.00 0.00 69 1015.6
20260505151820 8 163 8.0 9.7 0.00 0.00 0.00 68 1015.6
20260505150920 9 292 8.0 9.7 0.00 0.00 0.00 68 1015.7
20260505140620 9 149 6.4 11.3 0.00 0.00 0.00 69 1015.3
20260505124521 9 14 6.4 12.9 0.00 0.00 0.00 72 1015.1
20260505123620 9 347 6.4 11.3 0.00 0.00 0.00 72 1015.2
20260505122720 9 13 8.0 9.7 0.00 0.00 0.00 74 1015.2
20260505121820 9 15 9.7 14.5 0.00 0.00 0.00 73 1014.9
20260505120920 10 32 8.0 14.5 0.00 0.00 0.00 69 1014.7
20260505120020 11 17 6.4 12.9 0.00 0.00 0.00 63 1014.7
20260505115120 11 9 8.0 14.5 0.00 0.00 0.00 61 1014.7
20260505113320 11 20 6.4 11.3 0.00 0.00 0.00 57 1014.6
20260505112420 11 343 6.4 11.3 0.00 0.00 0.00 56 1014.5
20260505111520 11 323 4.8 9.7 0.00 0.00 0.00 59 1014.5
20260505110620 11 27 4.8 9.7 0.00 0.00 0.00 61 1014.5
20260505102120 10 41 6.4 9.7 0.00 0.00 0.00 66 1014.6
20260505100320 10 40 4.8 6.4 0.00 0.00 0.00 65 1014.5
20260505095420 10 42 6.4 9.7 0.00 0.00 0.00 67 1014.4
20260505093620 10 23 4.8 9.7 0.00 0.00 0.00 68 1014.3
20260505090920 10 17 4.8 9.7 0.00 0.00 0.00 70 1014.4
20260505090020 9 20 6.4 11.3 0.00 0.00 0.00 72 1014.3
20260505085120 10 12 6.4 11.3 0.00 0.00 0.00 71 1014.3
20260505084220 10 9 4.8 11.3 0.00 0.00 0.00 72 1014.2
20260505083320 9 340 4.8 9.7 0.00 0.00 0.00 77 1014.2
20260505082420 10 13 6.4 12.9 0.00 0.00 0.00 80 1014.2
20260505081520 8 12 8.0 12.9 0.00 0.00 0.00 80 1014.3
20260505080620 8 299 1.6 3.2 0.00 0.00 0.00 84 1014.1
20260505074820 8 291 1.6 3.2 0.00 0.00 0.00 86 1014.1
20260505073920 8 299 3.2 3.2 0.00 0.00 0.00 88 1013.9